Regional Weather Roundup
Issued by NWS Bismarck, ND

Home | Current Version | Previous Version | Text Only | Print | Product List | Glossary On
Versions: 1 2 3 4 5 6 7 8 9 10 11 12 13 14 15 16 17 18 19 20 21 22 23 24 25 26 27 28 29 30 31 32 33 34 35 36 37 38 39 40 41 42 43 44 45 46 47 48 49 50
000
ASUS43 KBIS 281010
RWRBIS

NWR BROADCAST TEXT
NATIONAL WEATHER SERVICE BISMARCK ND
500 AM CDT FRI AUG 28 2015

NOTE: "FAIR" INDICATES FEW OR NO CLOUDS BELOW 12,000 FEET WITH NO
SIGNIFICANT WEATHER AND/OR OBSTRUCTIONS TO VISIBILITY.


CITY           SKY/WX    TMP DP  RH WIND       PRES   REMARKS
WILLISTON      CLEAR     65  62  90 S3        29.86S
MINOT          CLEAR     68  58  70 SW15      29.82S
MINOT AFB      CLEAR     66  64  91 SW10      29.80S
BISMARCK       PTCLDY    61  59  93 CALM      29.91S
DICKINSON      PTCLDY    60  54  80 S7        29.90F
GARRISON         N/A     63  58  83 SW3       29.88R
HETTINGER ARPT PTCLDY    57  54  89 CALM      29.96S
JAMESTOWN      CLEAR     61  59  93 S3        29.89F
CROSBY         FAIR      59  59 100 SW8       29.84S
HARVEY         FAIR      64  63  94 SW9       29.86F
HAZEN          CLOUDY    61  57  88 CALM      29.89S
LINTON         FAIR      57  57 100 E3        29.93S FOG
OAKES            N/A     59  59 100 S7        29.93R FOG
RUGBY          FAIR      64  63  94 S7        29.84R
STANLEY        PTSUNNY   61  61 100 SW3       29.87R
$$

CITY           SKY/WX    TMP DP  RH WIND       PRES   REMARKS
GRAND FORKS    PTCLDY    63  62  97 S6        29.85R FOG
GRAND FORKS AF PTCLDY    63  62  97 SW5       29.85R
DEVILS LAKE    CLOUDY    66  57  72 SW9       29.85R
FARGO          PTCLDY    66  63  90 S6        29.90S
CAVALIER       FAIR      64  63  94 S6        29.84S
GRAFTON        FAIR      63  63 100 S6        29.86R
GWINNER          N/A     63  63 100 SW6       29.93R
LANGDON        FAIR      64  64 100 S7        29.87F
ROLLA          CLOUDY    63  63 100 S6        29.87S
WALHALLA       LGT RAIN  66  66 100 MISG      29.84S
$$

CITY           SKY/WX    TMP DP  RH WIND       PRES   REMARKS
ABERDEEN       PTCLDY    62  61  96 S3        29.92F FOG
MOBRIDGE       CLOUDY    64  64 100 SE3       29.92S
BUFFALO          N/A     60  55  83 NW5       29.91S
RAPID CITY     CLEAR     57  54  89 NW7       29.99R
GLASGOW        CLEAR     60  51  72 CALM      29.88R
SIDNEY         CLEAR     61  55  82 S5        29.87R
WOLF POINT     CLEAR     58  54  86 S5        29.87S
GLENDIVE       CLEAR     59  54  82 SW6       29.92R
MILES CITY     CLEAR     63  46  54 W5        29.95R
BAKER          PTCLDY    64  52  64 W8        29.96R
$$

CITY           SKY/WX    TMP DP  RH WIND       PRES   REMARKS
BILLINGS       CLEAR     67  47  48 SW17      30.05S
GREAT FALLS    CLOUDY    63  38  39 SW13      30.04S HAZE
ESTEVAN        MOCLDY    61  57  88 SW7       29.82S
$$




USA.gov is the U.S. government's official web portal to all federal, state and local government web resources and services.